Home > Weather > Ede > Past weeks

Flag for Netherlands Weather for the Past 2 Weeks in Ede, Netherlands

Now
50 °F

Cloudy.


Feels Like: 44 °F
Forecast: 43 / 49 °F
Wind: 16 mph from South

Location: Deelen

Current Time: Feb 6, 2016 at 3:30:42 PM

Latest Report: Feb 6, 2016 at 2:55 PM


Visibility: N/A

Pressure: 29.71 "Hg

Humidity: 76%

Dew point: 43 °F

Location of EdeLocation

Historic Weather in Ede — Graph

°F

Ede Temperature Yesterday

Maximum temperature yesterday: 50 °F (at 12:25 PM)
Minimum temperature yesterday: 37 °F (at 12:55 AM)
Average temperature yesterday: 46 °F

High & Low Weather Summary for the Past Weeks

 TemperatureHumidityPressure
High57 °F (Jan 25, 2:25 PM)100% (Jan 22, 8:25 PM)30.51 "Hg (Jan 22, 8:25 PM)
Low34 °F (Jan 22, 2:25 PM)58% (Jan 25, 7:25 PM)29.65 "Hg (Jan 30, 2:55 PM)
Average45 °F89%30.05 "Hg
* Reported Jan 22 2:25 PM — Feb 6 2:25 PM, Ede, Weather by CustomWeather, © 2016

Note: Actual official high and low records may vary slightly from our data, if they occured in-between our weather recording intervals... More about our weather records

Advertising

Ede Weather History for the Previous 24 Hours

 ConditionsComfort  
Time TempWeatherWind HumidityBarometerVisibility
2:25 PM
Sat, Feb 6
50 °FBroken clouds.14 mph76%29.74 "HgN/A
1:55 PM50 °FMore clouds than sun.15 mph76%29.74 "HgN/A
1:25 PM50 °FMostly cloudy.17 mph76%29.74 "HgN/A
12:55 PM50 °FBroken clouds.17 mph76%29.77 "HgN/A
12:25 PM50 °FMore clouds than sun.16 mph76%29.77 "HgN/A
11:55 AM48 °FMostly cloudy.14 mph87%29.80 "HgN/A
11:25 AM48 °FMore clouds than sun.14 mph82%29.80 "HgN/A
10:55 AM48 °FOvercast.15 mph82%29.80 "HgN/A
10:25 AM48 °FOvercast.14 mph82%29.83 "HgN/A
9:55 AM48 °FOvercast.14 mph82%29.83 "HgN/A
9:25 AM48 °FOvercast.14 mph82%29.83 "HgN/A
8:55 AM48 °FOvercast.14 mph82%29.83 "HgN/A
8:25 AM48 °FCloudy.15 mph87%29.83 "HgN/A
7:55 AM48 °FOvercast.13 mph87%29.83 "HgN/A
7:25 AM48 °FMostly cloudy.14 mph87%29.83 "HgN/A
6:55 AM48 °FOvercast.12 mph87%29.86 "HgN/A
6:25 AM48 °FMostly cloudy.14 mph87%29.86 "HgN/A
5:55 AM48 °FMostly cloudy.13 mph87%29.86 "HgN/A
4:55 AM48 °FOvercast.12 mph87%29.89 "HgN/A
4:25 AM48 °FOvercast.13 mph87%29.89 "HgN/A
3:55 AM48 °FOvercast.12 mph87%29.92 "HgN/A
2:55 AM48 °FMostly cloudy.13 mph87%29.95 "HgN/A
1:55 AM48 °FOvercast.12 mph87%29.95 "HgN/A
1:25 AM48 °FMostly cloudy.12 mph87%29.98 "HgN/A
12:55 AM48 °FMostly cloudy.20 mph87%29.98 "HgN/A
11:55 PM
Fri, Feb 5
48 °FFog.13 mph94%30.01 "Hg6 mi
11:25 PM48 °FDrizzle. Mostly cloudy.10 mph100%30.01 "Hg3 mi
10:55 PM48 °FFog.10 mph100%30.01 "Hg2 mi
10:25 PM48 °FPassing clouds.13 mph100%30.04 "Hg2 mi
9:55 PM48 °FFog.15 mph100%30.04 "Hg5 mi
9:25 PM48 °FFog.15 mph100%30.04 "Hg6 mi
8:55 PM48 °FFog.13 mph100%30.04 "Hg5 mi
8:25 PM48 °FFog.15 mph100%30.07 "Hg5 mi
7:55 PM48 °FFog.14 mph100%30.07 "Hg6 mi
7:25 PM48 °FFog.14 mph100%30.07 "Hg4 mi
6:55 PM48 °FFog.12 mph100%30.07 "Hg2 mi
6:25 PM48 °FFog.10 mph100%30.09 "Hg2 mi
5:55 PM48 °FDrizzle. Mostly cloudy.8 mph100%30.09 "Hg2 mi
5:25 PM50 °FCloudy.12 mph88%30.09 "HgN/A
4:55 PM50 °FBroken clouds.12 mph88%30.09 "HgN/A
4:25 PM50 °FMore clouds than sun.13 mph88%30.09 "HgN/A
3:55 PM50 °FCloudy.10 mph88%30.09 "HgN/A
3:25 PM50 °FMostly cloudy.13 mph88%30.09 "HgN/A
Weather by CustomWeather, © 2016

See weather overviewHow to use our weather pages